DELTA 1 DEB, 7200

Orbit data source: Space-Track

DELTA 1 DEB, 7200 is space debris in SSO originally from a launch on Tue, 06 Nov 1973 UTC launched from the Air Force Western Test Range (AFWTR). Debris objects in space refer to the collection of defunct objects orbiting the Earth. Examples of debris include non-operational satellites, rocket bodies, and fragments generated from explosions, collisions, or faulty payload assembly.

Loading next visibility...
Identifier
7200, 1973-086FJ
Orbit
SSO
Country
Flag of USUS
Related business
Manufacturer
Unknown
Mission
Spacecraft
Bus & Motor
Unknown
Mass
Unknown
Launch date (UTC)
1973-11-06 (52 years ago)
Launch vehicle
Unknown
Launch site
Air Force Western Test Range (AFWTR)
Object type
Payload
Rocket body
Debris
Shape & HBR
Unknown shape, 0.1 m
Radar Cross Section
Small (<0.1 m²)

Expand to show TLE details & history
Last TLE update: 1 day ago

TLE from 1 day ago
0 DELTA 1 DEB
1  7200U 73086FJ  26121.88200110  .00000357  00000-0  41983-2 0  9997
2  7200 102.3908 109.2189 0302579  70.3123   2.9933 12.01974184296747
Epoch: 2026-05-01T21:10Z
TLE epoch observation values (Epoch: 2026-05-01T21:10:04.895Z)
Latitude
69.54209°
Longitude
-103.9833°
Altitude
1,440.603 km
Speed
7.255 km/s
True Right ascension
04h 53m 22s
True Declination
69° 26' 21"
Sunlit
Object was in daylight at epoch
Visualization orbit readout
Latitude
Unknown
Longitude
Unknown
Altitude
Unknown
Speed
Unknown
Apparent Right ascension
Unknown
Apparent Declination
Unknown
Sunlit
N/A
Visualization observer readout
Local Sidereal Time
10:21:45
Azimuth
Unknown
Elevation
Unknown
Doppler factor
Unknown
Orbital elements
Apogee altitude
1,913.188 km
Perigee altitude
1,426.168 km
Semi-major axis
8,047.815 km
Eccentricity
0.03026
Inclination
102.3908°
RAAN
109.2189°
Arg. of periapsis
70.3123°
True anomaly
3.18145°
Mean anomaly
2.9933°
Eccentric anomaly
3.08665°
Mean motion
3.00626 °/min
Orbital period
119.75 mins
BSTAR
0.0041983
Loading maneuver chart data...
Computing Atmospheric mass density...
Loading historical data...
Loading historical data...
Loading historical data...
Loading historical data...
Loading historical data...
Loading historical data...
Loading historical data...

Documentation

Showing up to 5 results
|